Погода в Берестовом

Украина / Запорожская область     47°07′49″N   36°48′15″E
темп.,
°C
ветер,
м/с
пор.,
м/с
влажн.,
%
обл.,
%
осадки,
мм/ч
давл.,
гПа
погр.,
м
19 января, вт
вт1923:00−15сз2394100 0.0 101982
02:00−14зсз3689100 0.0 1019308
05:00−15з269485 0.0 1020256
08:00−16зсз399371 0.0 1020436
11:00−13зсз478586 0.0 1021572
14:00−12зсз478493 0.0 1020628
17:00−13зсз2694100 0.0 1022205
20:00−15зсз239585 0.0 102259
20 января, ср
ср2023:00−15сз229556 0.0 102345
02:00−15сз229376 0.0 102460
05:00−15сз229296 0.0 102547
08:00−16ссз129055 0.0 102543
11:00−12ссв11780 0.0 1027262
14:00−11ююв01760 0.0 1026374
17:00−13юв12877 0.0 102720
20:00−13вюв12883 0.0 102820
21 января, чт
чт2123:00−13юв22860 0.0 102820
02:00−12вюв22900 0.0 102822
05:00−12вюв339817 0.0 102848
08:00−10вюв369857 0.1 1028131
11:00−4юв5896100 0.1 1028350
14:00−3ююв4797100 0.2 1026280
17:00−4юв479998 0.1 1026142
20:00−2ююв379998 0.1 1025170
22 января, пт
пт2223:00−1ю359989 0.0 102498
02:000юз499685 0.0 1024192
05:00+1юз5129748 0.0 1023349
08:00+1юз5129573 0.0 1024342
11:00+3ююз41110099 0.0 1023323
14:00+3ююз4129994 0.0 1022394
17:00+2ююз4119452 0.0 1022229
20:00+2ю5129571 0.0 1022294
23 января, сб
сб2323:00+3ю5129596 0.0 1021323
02:00+3ю5139598 0.0 1020339
05:00+3ю5139399 0.0 1019334
08:00+3ю5139199 0.0 1020326
11:00+4ю5149596 0.1 1019394
14:00+4ю5129298 0.1 1018353
17:00+4ю4992100 0.0 1017196
20:00+4ю51192100 0.0 1018225